Weather History for Columbia Airport, CA

Change the Weather History Date:

Friday, October 11, 2013

  Actual Average (KMOD) Record (KMOD)
Temperature  
Mean Temperature 55 °F -  
Max Temperature 71 °F 81 °F 95 °F (1991)
Min Temperature 39 °F 54 °F 41 °F (1960)
Degree Days  
Heating Degree Days 10 1  
Month to date heating degree days 8  
Since 1 July heating degree days 11  
Cooling Degree Days 0 4  
Month to date cooling degree days 53  
Year to date cooling degree days 1665  
Growing Degree Days 5 (Base 50)    
Moisture  
Dew Point 37 °F    
Average Humidity 57    
Maximum Humidity 93    
Minimum Humidity 27    
Precipitation  
Precipitation 0.00 in 0.02 in 1.14 in (1963)
Month to date precipitation 0.16  
Year to date precipitation 9.19  
Since 1 July precipitation 0.44  
Snow  
Snow 0.00 in - 0.00 in (2002)
Month to date snowfall  
Since 1 July snowfall  
Since 1 September snowfall  
Snow Depth -    
Sea Level Pressure  
Sea Level Pressure 30.03 in    
Wind  
Wind Speed 1 mph (WSW)    
Max Wind Speed 9 mph    
Max Gust Speed -    
Visibility 10 miles    
Events      
T = Trace of Precipitation, MM = Missing Value Source: NWS Daily Summary

Daily Weather History Graph

Daily Weather History Graph

Search for Another Location

Airport:

Trip Planner

Search our weather history database for the weather conditions in past years. The results will help you decide how hot, cold, wet, or windy it might be!

Date:

Astronomy

Oct. 11, 2013 Rise Set
Actual Time 7:06 AM PDT 6:29 PM PDT
Civil Twilight 6:40 AM PDT 6:55 PM PDT
Nautical Twilight 6:09 AM PDT 7:26 PM PDT
Astronomical Twilight 5:39 AM PDT 7:56 PM PDT
Moon 1:49 PM PDT (10/11) No Moon Set
Length of Visible Light 12h 15m
Length of Day
11h 22m
Waxing Crescent, 48% of the Moon is Illuminated
Oct 11
Waxing Crescent
Oct 11
First Quarter
Oct 18
Full
Oct 26
Last Quarter
Nov 3
New

Hourly Weather History & Observations

Time (PDT) Temp. Dew Point Humidity Pressure Visibility Wind Dir Wind Speed Gust Speed Precip Events Conditions
12:15 AM 44.6 °F 37.4 °F 76% 30.01 in 10.0 mi Calm Calm - N/A   Clear
12:35 AM 44.6 °F 37.4 °F 76% 30.02 in 10.0 mi Calm Calm - N/A   Clear
12:55 AM 42.8 °F 37.4 °F 81% 30.02 in 10.0 mi Calm Calm - N/A   Clear
1:15 AM 42.8 °F 37.4 °F 81% 30.02 in 10.0 mi Calm Calm - N/A   Clear
1:35 AM 42.8 °F 37.4 °F 81% 30.03 in 10.0 mi Calm Calm - N/A   Clear
1:55 AM 41.0 °F 35.6 °F 81% 30.03 in 10.0 mi Calm Calm - N/A   Partly Cloudy
2:15 AM 41.0 °F 35.6 °F 81% 30.02 in 10.0 mi Calm Calm - N/A   Partly Cloudy
2:35 AM 41.0 °F 37.4 °F 87% 30.03 in 10.0 mi Calm Calm - N/A   Clear
2:55 AM 41.0 °F 37.4 °F 87% 30.03 in 10.0 mi Calm Calm - N/A   Clear
3:15 AM 41.0 °F 37.4 °F 87% 30.03 in 10.0 mi Calm Calm - N/A   Clear
3:35 AM 41.0 °F 37.4 °F 87% 30.03 in 10.0 mi Calm Calm - N/A   Clear
3:55 AM 41.0 °F 37.4 °F 87% 30.03 in 10.0 mi Calm Calm - N/A   Clear
4:15 AM 41.0 °F 37.4 °F 87% 30.03 in 10.0 mi Calm Calm - N/A   Clear
4:35 AM 41.0 °F 37.4 °F 87% 30.03 in 10.0 mi Calm Calm - N/A   Clear
4:55 AM 41.0 °F 37.4 °F 87% 30.04 in 10.0 mi Calm Calm - N/A   Clear
5:15 AM 41.0 °F 37.4 °F 87% 30.03 in 10.0 mi Calm Calm - N/A   Clear
5:35 AM 41.0 °F 37.4 °F 87% 30.04 in 10.0 mi Calm Calm - N/A   Clear
5:55 AM 39.2 °F 35.6 °F 87% 30.04 in 10.0 mi Calm Calm - N/A   Clear
6:15 AM 41.0 °F 37.4 °F 87% 30.04 in 10.0 mi Calm Calm - N/A   Clear
6:35 AM 39.2 °F 37.4 °F 93% 30.04 in 10.0 mi Calm Calm - N/A   Clear
6:55 AM 39.2 °F 35.6 °F 87% 30.05 in 10.0 mi Calm Calm - N/A   Clear
7:15 AM 39.2 °F 37.4 °F 93% 30.05 in 10.0 mi Calm Calm - N/A   Clear
7:35 AM 41.0 °F 37.4 °F 87% 30.05 in 10.0 mi Calm Calm - N/A   Clear
7:55 AM 44.6 °F 39.2 °F 81% 30.06 in 10.0 mi Calm Calm - N/A   Clear
8:15 AM 48.2 °F 39.2 °F 71% 30.06 in 10.0 mi Calm Calm - N/A   Clear
8:35 AM 51.8 °F 39.2 °F 62% 30.07 in 10.0 mi Calm Calm - N/A   Clear
8:55 AM 55.4 °F 39.2 °F 54% 30.07 in 10.0 mi Calm Calm - N/A   Clear
9:15 AM 57.2 °F 39.2 °F 51% 30.07 in 10.0 mi Calm Calm - N/A   Clear
9:35 AM 60.8 °F 37.4 °F 42% 30.07 in 10.0 mi Calm Calm - N/A   Clear
9:55 AM 60.8 °F 37.4 °F 42% 30.07 in 10.0 mi Calm Calm - N/A   Clear
10:15 AM 64.4 °F 37.4 °F 37% 30.06 in 10.0 mi Calm Calm - N/A   Clear
10:35 AM 64.4 °F 37.4 °F 37% 30.05 in 10.0 mi Calm Calm - N/A   Clear
10:55 AM 64.4 °F 37.4 °F 37% 30.06 in 10.0 mi Calm Calm - N/A   Clear
11:15 AM 66.2 °F 37.4 °F 35% 30.06 in 10.0 mi WSW 4.6 mph - N/A   Clear
11:35 AM 66.2 °F 37.4 °F 35% 30.06 in 10.0 mi Calm Calm - N/A   Clear
11:55 AM 66.2 °F 37.4 °F 35% 30.06 in 10.0 mi SW 4.6 mph - N/A   Clear
12:15 PM 68.0 °F 37.4 °F 33% 30.06 in 10.0 mi West 3.5 mph - N/A   Clear
12:35 PM 69.8 °F 37.4 °F 31% 30.05 in 10.0 mi WSW 4.6 mph - N/A   Clear
12:55 PM 69.8 °F 37.4 °F 31% 30.04 in 10.0 mi West 4.6 mph - N/A   Clear
1:15 PM 69.8 °F 35.6 °F 28% 30.03 in 10.0 mi Calm Calm - N/A   Clear
1:35 PM 71.6 °F 35.6 °F 27% 30.03 in 10.0 mi SW 3.5 mph - N/A   Clear
1:55 PM 69.8 °F 35.6 °F 28% 30.03 in 10.0 mi SSW 3.5 mph - N/A   Clear
2:15 PM 71.6 °F 35.6 °F 27% 30.02 in 10.0 mi West 5.8 mph - N/A   Clear
2:35 PM 71.6 °F 35.6 °F 27% 30.02 in 10.0 mi West 3.5 mph - N/A   Clear
2:55 PM 71.6 °F 37.4 °F 29% 30.02 in 10.0 mi SW 6.9 mph - N/A   Clear
3:15 PM 71.6 °F 37.4 °F 29% 30.01 in 10.0 mi WSW 5.8 mph - N/A   Clear
3:35 PM 71.6 °F 37.4 °F 29% 30.01 in 10.0 mi SW 9.2 mph - N/A   Clear
3:55 PM 71.6 °F 37.4 °F 29% 30.01 in 10.0 mi SW 8.1 mph - N/A   Clear
4:15 PM 71.6 °F 37.4 °F 29% 30.01 in 10.0 mi West 6.9 mph - N/A   Clear
4:35 PM 69.8 °F 37.4 °F 31% 30.00 in 10.0 mi West 5.8 mph - N/A   Clear
4:55 PM 69.8 °F 37.4 °F 31% 30.00 in 10.0 mi WSW 4.6 mph - N/A   Clear
5:15 PM 68.0 °F 37.4 °F 33% 30.00 in 10.0 mi WSW 4.6 mph - N/A   Clear
5:35 PM 68.0 °F 37.4 °F 33% 30.00 in 10.0 mi WNW 5.8 mph - N/A   Clear
5:55 PM 66.2 °F 37.4 °F 35% 30.00 in 10.0 mi West 6.9 mph - N/A   Clear
6:15 PM 64.4 °F 37.4 °F 37% 30.00 in 10.0 mi Calm Calm - N/A   Clear
6:35 PM 60.8 °F 37.4 °F 42% 30.00 in 10.0 mi Calm Calm - N/A   Clear
6:55 PM 59.0 °F 37.4 °F 45% 30.00 in 10.0 mi Calm Calm - N/A   Clear
7:15 PM 57.2 °F 37.4 °F 48% 30.00 in 10.0 mi Calm Calm - N/A   Clear
7:35 PM 55.4 °F 37.4 °F 51% 30.00 in 10.0 mi Calm Calm - N/A   Clear
7:55 PM 53.6 °F 37.4 °F 54% 30.00 in 10.0 mi Calm Calm - N/A   Clear
8:15 PM 51.8 °F 37.4 °F 58% 30.00 in 10.0 mi Calm Calm - N/A   Clear
8:35 PM 53.6 °F 39.2 °F 58% 30.00 in 10.0 mi Calm Calm - N/A   Partly Cloudy
8:55 PM 55.4 °F 39.2 °F 54% 30.00 in 10.0 mi Calm Calm - N/A   Partly Cloudy
9:15 PM 53.6 °F 37.4 °F 54% 30.00 in 10.0 mi Calm Calm - N/A   Partly Cloudy
9:35 PM 55.4 °F 39.2 °F 54% 30.00 in 10.0 mi Calm Calm - N/A   Clear
9:55 PM 53.6 °F 39.2 °F 58% 30.00 in 10.0 mi Calm Calm - N/A   Clear
10:15 PM 51.8 °F 39.2 °F 62% 30.01 in 10.0 mi Calm Calm - N/A   Clear
10:35 PM 50.0 °F 39.2 °F 66% 30.01 in 10.0 mi Calm Calm - N/A   Partly Cloudy
10:55 PM 48.2 °F 39.2 °F 71% 30.01 in 10.0 mi Calm Calm - N/A   Partly Cloudy
11:15 PM 48.2 °F 39.2 °F 71% 30.01 in 10.0 mi Calm Calm - N/A   Clear
11:35 PM 48.2 °F 37.4 °F 66% 30.01 in 10.0 mi Calm Calm - N/A   Clear
11:55 PM 46.4 °F 37.4 °F 71% 30.01 in 10.0 mi Calm Calm - N/A   Clear